This is the latest recevied weather packets stored in our database for station/object KB7KFC-3. If no packets are shown the sender has not sent any weather packets the latest 10 day(s).
| Time | Temp. | Humidity | Pressure | Rain* | Wind** | Luminosity | Snow |
|---|---|---|---|---|---|---|---|
| 1777915865 | 25° C | 33% | 1012.6 hPa | 0 mm | - | - | - |
| 1777915685 | 24.44° C | 33% | 1012.5 hPa | 0 mm | - | - | - |
| 1777915504 | 24.44° C | 32% | 1012.5 hPa | 0 mm | - | - | - |
| 1777915324 | 24.44° C | 32% | 1012.5 hPa | 0 mm | - | - | - |
| 1777915144 | 24.44° C | 32% | 1012.7 hPa | 0 mm | - | - | - |
| 1777914965 | 25° C | 33% | 1012.8 hPa | 0 mm | - | - | - |
| 1777914784 | 25° C | 30% | 1012.8 hPa | 0 mm | - | - | - |
| 1777914604 | 25° C | 30% | 1012.9 hPa | 0 mm | - | - | - |
| 1777914424 | 25° C | 31% | 1012.8 hPa | 0 mm | - | - | - |
| 1777914245 | 25° C | 30% | 1012.9 hPa | 0 mm | - | - | - |
| 1777914064 | 25° C | 30% | 1012.9 hPa | 0 mm | - | - | - |
| 1777913884 | 24.44° C | 31% | 1012.9 hPa | 0 mm | - | - | - |
| 1777913705 | 24.44° C | 30% | 1012.9 hPa | 0 mm | - | - | - |
| 1777913525 | 24.44° C | 30% | 1013 hPa | 0 mm | - | - | - |
| 1777913345 | 24.44° C | 31% | 1013.1 hPa | 0 mm | - | - | - |
| 1777913164 | 24.44° C | 29% | 1013 hPa | 0 mm | - | - | - |
| 1777912984 | 24.44° C | 30% | 1013 hPa | 0 mm | - | - | - |
| 1777912804 | 24.44° C | 30% | 1013 hPa | 0 mm | - | - | - |
| 1777912625 | 24.44° C | 30% | 1012.8 hPa | 0 mm | - | - | - |
| 1777912444 | 24.44° C | 30% | 1012.7 hPa | 0 mm | - | - | - |
| 1777912265 | 24.44° C | 30% | 1012.7 hPa | 0 mm | - | - | - |
| 1777912084 | 24.44° C | 30% | 1012.6 hPa | 0 mm | - | - | - |
| 1777911904 | 24.44° C | 30% | 1012.5 hPa | 0 mm | - | - | - |
| 1777911725 | 24.44° C | 30% | 1012.7 hPa | 0 mm | - | - | - |
| 1777911545 | 24.44° C | 32% | 1012.8 hPa | 0 mm | - | - | - |
* Rain latest hour (hover to see other rain measurements)
** Current wind speed in m/s (hover to see current wind gust speed)